STARLINK-11660 [DTC] (63761 NORAD) Tracking and Keplerian Element Data

This shows tracking and keplerian element data for the satellite.

Feedback or suggestion? Click here.




ElementValue
Catalog63761
NameSTARLINK-11660 [DTC]
Epoch Orbit3758
Epoch Day354.18425161
Epoch Year2025
RAAN51.2743
Inclination43.0017
Eccentricity0.0004759
Argument of Perigee294.713
Mean Anonmoly65.3242
Mean Motion15.70963115
Decay Rate0.00191055
L11 63761U 25089L 25354.18425161 .00191055 00000+0 14504-2 0 9990
L22 63761 43.0017 51.2743 0004759 294.7130 65.3242 15.70963115 37586



Live tracking and technical data element details for STARLINK-11660 [DTC] (NORAD 63761). STARLINK-11660 [DTC] can be tracked NOW for your location showing map with azimuth and elevation plus other details from your city location.







IsCatalogInMostPopularTable: catalog: 63761, numindb: 2
Update: records affected: 1



GetName: 63761 STARLINK-11660 [DTC]

Hit Count: updated at: Sun, 08 Feb 2026 08:48:01 GMT